DW0683 Weather Reports


Display with metric or nautical units.
time (UTC)temp
F
wind
direction
speed
MPH
gust
MPH
rain 1hr
in
rain 24hr
in
rain mn
in
humidity
%
barometer
mb
20260906153821 90 290 4.0 8.0 0.00 0.00 0.00 39 1014.0
20260906150839 91 304 4.0 9.0 0.00 0.00 0.00 35 1013.9
20260906143855 89 5 0.0 4.0 0.00 0.00 0.00 38 1013.8
20260906140832 88 342 1.0 2.0 0.00 0.00 0.00 37 1014.0
20260906133852 89 313 1.0 2.0 0.00 0.00 0.00 39 1014.1
20260906130830 85 313 0.0 2.0 0.00 0.00 0.00 43 1013.9
20260906123831 79 314 0.0 2.0 0.00 0.00 0.00 55 1013.4
20260906120850 0 0.0 0.0 0.00 0.00 0.00 1013.6
20260906113830 0 0.0 0.0 0.00 0.00 0.00 1012.8
20260906110828 0 0.0 0.0 0.00 0.00 0.00 1012.7
20260906103828 0 0.0 0.0 0.00 0.00 0.00 1012.1
20260906100825 0 0.0 0.0 0.00 0.00 0.00 1011.7
20260906093825 0 0.0 0.0 0.00 0.00 0.00 1011.1
20260906090823 0 0.0 0.0 0.00 0.00 0.00 1011.2
20260906083824 0 0.0 0.0 0.00 0.00 0.00 1011.2
20260906080842 0 0.0 0.0 0.00 0.00 0.00 1011.4
20260906073820 0 0.0 0.0 0.00 0.00 0.00 1011.8
20260906070818 0 0.0 0.0 0.00 0.00 0.00 1011.9
20260906063838 0 0.0 0.0 0.00 0.00 0.00 1012.1
20260906060815 0 0.0 0.0 0.00 0.00 0.00 1012.6
20260906053855 0 0.0 0.0 0.00 0.00 0.00 1013.0
20260906050822 0 0.0 0.0 0.00 0.00 0.00 1013.1
20260906043823 78 303 0.0 1.0 0.00 0.00 0.00 42 1012.9
20260906040821 79 303 0.0 0.0 0.00 0.00 0.00 44 1013.1
20260906033821 79 303 0.0 0.0 0.00 0.00 0.00 44 1013.4
20260906030839 79 303 0.0 0.0 0.00 0.00 0.00 46 1013.4
20260906023818 80 303 0.0 0.0 0.00 0.00 0.00 48 1013.7
20260906020816 80 303 0.0 2.0 0.00 0.00 0.00 51 1013.7
20260906013836 81 303 0.0 0.0 0.00 0.00 0.00 57 1013.0
20260906010832 82 303 0.0 0.0 0.00 0.00 0.00 58 1012.8
20260906003832 83 303 0.0 1.0 0.00 0.00 0.00 58 1012.9
20260906000830 85 303 0.0 2.0 0.00 0.00 0.00 57 1012.6
20260905233830 86 297 1.0 4.0 0.00 0.00 0.00 56 1012.5
20260905230828 87 288 1.0 6.0 0.00 0.00 0.00 54 1012.8
20260905223828 88 9 3.0 10.0 0.00 0.00 0.00 54 1012.6
20260905220847 89 339 1.0 9.0 0.00 0.00 0.00 54 1012.4
20260905213826 89 333 4.0 10.0 0.00 0.00 0.00 53 1012.3
20260905210825 89 309 5.0 9.0 0.00 0.00 0.00 53 1012.6
20260905203825 90 329 4.0 11.0 0.00 0.00 0.00 51 1012.4
20260905200824 91 249 3.0 13.0 0.00 0.00 0.00 50 1012.6
20260905193819 91 281 2.0 10.0 0.00 0.00 0.00 52 1012.9
20260905190837 91 314 3.0 9.0 0.00 0.00 0.00 50 1013.3
20260905183816 91 256 4.0 10.0 0.00 0.00 0.00 53 1013.3